Voltar ao catálogo

CZ-6A DEB

AtivoPO
NORAD 61309·DEBRIS·🇨🇳 China

Lançado Aug 6, 2024 de Taiyuan Satellite Launch Center

Loading…

Próximas Passagens (próximas 24 horas)

TLE

AtualizadoSource: Space-Track

Época: Sep 14, 2026, 23:07 UTC

1 61309U 24140TW  26257.96330230  .00002042  00000-0  77549-3 0  9991
2 61309  88.9721 261.1497 0021613 195.6937 164.3592 14.30597540106745

Acompanhe CZ-6A DEB em tempo real com AllMySat

Download on the App Store